�������l�o���
Date,Time,MP-1(��Sv/h),MP-2(��Sv/h),MP-3(��Sv/h),MP-4(��Sv/h),MP-5(��Sv/h),MP-6(��Sv/h),MP-7(��Sv/h),MP-8(��Sv/h),����,����(m/s),���J
2023/09/22,00:00,0.544,0.821,0.500,1.014,0.728,0.329,0.580,0.540,��쐼,6.7,�L
2023/09/22,00:10,0.542,0.820,0.500,1.016,0.727,0.329,0.579,0.539,��쐼,6.2,�L
2023/09/22,00:20,0.544,0.821,0.499,1.015,0.727,0.329,0.579,0.539,��쐼,6.6,�L
2023/09/22,00:30,0.544,0.820,0.502,1.015,0.726,0.328,0.579,0.539,��쐼,6.7,�L
2023/09/22,00:40,0.544,0.821,0.501,1.015,0.728,0.327,0.579,0.540,��쐼,6.5,�L
2023/09/22,00:50,0.544,0.820,0.501,1.017,0.728,0.329,0.579,0.539,��쐼,7.6,�L
2023/09/22,01:00,0.543,0.821,0.502,1.015,0.727,0.329,0.580,0.540,��쐼,6.3,�L
2023/09/22,01:10,0.544,0.822,0.503,1.013,0.728,0.330,0.580,0.539,��쐼,6.2,��
2023/09/22,01:20,0.543,0.822,0.498,1.015,0.729,0.328,0.580,0.540,��쐼,5.9,�L
2023/09/22,01:30,0.542,0.820,0.500,1.015,0.727,0.328,0.581,0.542,��쐼,4.6,��
2023/09/22,01:40,0.542,0.820,0.500,1.011,0.726,0.328,0.581,0.538,��,5.2,��
2023/09/22,01:50,0.542,0.820,0.499,1.014,0.727,0.327,0.578,0.539,��쐼,4.6,��
2023/09/22,02:00,0.542,0.820,0.499,1.014,0.724,0.327,0.578,0.540,��,4.9,��
2023/09/22,02:10,0.541,0.820,0.499,1.013,0.726,0.328,0.579,0.538,��,3.3,��
2023/09/22,02:20,0.542,0.818,0.501,1.013,0.725,0.326,0.579,0.539,�쐼,2.0,��
2023/09/22,02:30,0.541,0.819,0.500,1.012,0.726,0.328,0.578,0.538,�쐼,2.0,��
2023/09/22,02:40,0.540,0.820,0.499,1.013,0.727,0.327,0.579,0.538,��,2.0,��
2023/09/22,02:50,0.541,0.818,0.498,1.014,0.724,0.327,0.579,0.539,���k��,2.0,��
2023/09/22,03:00,0.542,0.820,0.499,1.013,0.725,0.326,0.580,0.540,�k�k��,2.5,�L
2023/09/22,03:10,0.540,0.818,0.499,1.013,0.725,0.329,0.577,0.538,�k��,4.9,�L
2023/09/22,03:20,0.541,0.821,0.499,1.013,0.725,0.328,0.578,0.539,�k��,6.5,�L
2023/09/22,03:30,0.540,0.820,0.499,1.015,0.725,0.327,0.579,0.538,�k��,6.1,�L
2023/09/22,03:40,0.541,0.819,0.499,1.015,0.725,0.326,0.579,0.539,���k��,7.2,�L
2023/09/22,03:50,0.541,0.819,0.500,1.016,0.725,0.327,0.579,0.539,���k��,6.9,�L
2023/09/22,04:00,0.545,0.819,0.502,1.014,0.727,0.327,0.578,0.538,���k��,7.5,�L
2023/09/22,04:10,0.545,0.819,0.504,1.015,0.730,0.329,0.581,0.540,���k��,4.9,�L
2023/09/22,04:20,0.545,0.821,0.503,1.017,0.728,0.330,0.579,0.539,���k��,3.1,�L
2023/09/22,04:30,0.544,0.819,0.503,1.018,0.729,0.331,0.581,0.540,�k��,3.8,�L
2023/09/22,04:40,0.544,0.819,0.502,1.019,0.727,0.329,0.580,0.539,�k��,5.9,�L
2023/09/22,04:50,0.544,0.816,0.504,1.020,0.727,0.329,0.579,0.538,�k��,5.7,�L
2023/09/22,05:00,0.542,0.816,0.502,1.018,0.726,0.329,0.580,0.540,�k��,5.8,��
2023/09/22,05:10,0.541,0.816,0.499,1.018,0.725,0.328,0.579,0.538,���k��,6.5,��
2023/09/22,05:20,0.540,0.813,0.500,1.016,0.725,0.328,0.578,0.538,��,6.2,�L
2023/09/22,05:30,0.538,0.812,0.497,1.017,0.724,0.326,0.578,0.537,��,7.2,�L
2023/09/22,05:40,0.537,0.811,0.496,1.015,0.723,0.326,0.579,0.538,��,6.9,��
2023/09/22,05:50,0.537,0.811,0.495,1.012,0.722,0.325,0.580,0.538,��,6.7,��
2023/09/22,06:00,0.536,0.810,0.495,1.016,0.722,0.325,0.577,0.536,��,5.9,��
2023/09/22,06:10,0.536,0.809,0.496,1.012,0.723,0.324,0.578,0.538,��,6.5,��
2023/09/22,06:20,0.534,0.809,0.495,1.014,0.722,0.324,0.578,0.537,��,6.1,��
2023/09/22,06:30,0.535,0.808,0.494,1.015,0.719,0.324,0.578,0.537,�k��,6.1,�L
2023/09/22,06:40,0.534,0.807,0.492,1.013,0.722,0.325,0.577,0.536,�k��,6.0,�L
2023/09/22,06:50,0.534,0.809,0.493,1.011,0.722,0.325,0.578,0.537,�k��,5.0,�L
2023/09/22,07:00,0.535,0.807,0.494,1.011,0.722,0.324,0.576,0.536,�k�k��,5.4,�L
2023/09/22,07:10,0.534,0.807,0.493,1.013,0.722,0.325,0.578,0.535,�k�k��,5.9,�L
2023/09/22,07:20,0.533,0.808,0.493,1.012,0.722,0.323,0.577,0.536,�k�k��,5.2,�L
2023/09/22,07:30,0.534,0.807,0.494,1.012,0.723,0.324,0.578,0.536,�k�k��,4.6,�L
2023/09/22,07:40,0.533,0.809,0.495,1.015,0.723,0.325,0.578,0.535,�k�k��,5.2,�L
2023/09/22,07:50,0.535,0.806,0.495,1.013,0.721,0.323,0.577,0.536,�k�k��,5.9,�L
2023/09/22,08:00,0.535,0.809,0.496,1.012,0.721,0.325,0.579,0.536,�k�k��,3.6,�L
2023/09/22,08:10,0.534,0.810,0.495,1.014,0.721,0.326,0.577,0.537,�k�k��,4.0,�L
2023/09/22,08:20,0.533,0.810,0.493,1.016,0.721,0.324,0.577,0.537,�k�k��,3.5,�L
2023/09/22,08:30,0.534,0.810,0.494,1.014,0.722,0.324,0.578,0.536,�k,3.5,�L
2023/09/22,08:40,0.535,0.809,0.493,1.013,0.721,0.324,0.578,0.536,�k,3.7,�L
2023/09/22,08:50,0.534,0.808,0.494,1.013,0.721,0.324,0.578,0.537,�k�k��,4.9,�L
2023/09/22,09:00,0.534,0.808,0.494,1.011,0.722,0.324,0.578,0.536,�k�k��,3.3,�L
2023/09/22,09:10,0.535,0.809,0.494,1.013,0.722,0.326,0.579,0.536,�k�k��,4.3,�L
2023/09/22,09:20,0.536,0.809,0.494,1.011,0.720,0.326,0.579,0.536,�k,3.1,�L
2023/09/22,09:30,0.536,0.808,0.495,1.012,0.721,0.324,0.579,0.536,�k�k��,3.7,�L
2023/09/22,09:40,0.535,0.807,0.495,1.011,0.723,0.325,0.578,0.535,�k,2.9,�L
2023/09/22,09:50,0.534,0.810,0.496,1.010,0.720,0.324,0.579,0.535,�k�k��,2.3,�L
2023/09/22,10:00,0.536,0.809,0.496,1.009,0.722,0.325,0.577,0.535,�k,3.6,��
2023/09/22,10:10,0.535,0.809,0.496,1.012,0.724,0.326,0.576,0.536,�k�k��,5.5,��
2023/09/22,10:20,0.537,0.812,0.497,1.012,0.724,0.325,0.579,0.535,�k,6.3,��
2023/09/22,10:30,0.537,0.812,0.497,1.013,0.724,0.325,0.577,0.534,�k�k��,6.2,��
2023/09/22,10:40,0.539,0.812,0.498,1.015,0.725,0.325,0.576,0.535,�k�k��,5.9,��
2023/09/22,10:50,0.535,0.813,0.495,1.012,0.727,0.324,0.577,0.534,�k�k��,6.0,�L
2023/09/22,11:00,0.536,0.813,0.496,1.015,0.726,0.324,0.576,0.535,�k�k��,6.3,�L
2023/09/22,11:10,0.535,0.814,0.496,1.015,0.724,0.323,0.576,0.534,�k�k��,6.7,��
2023/09/22,11:20,0.534,0.813,0.497,1.015,0.722,0.323,0.575,0.534,�k�k��,7.3,��
2023/09/22,11:30,0.535,0.814,0.496,1.014,0.724,0.324,0.577,0.534,�k�k��,8.9,��
2023/09/22,11:40,0.536,0.814,0.495,1.014,0.722,0.323,0.576,0.533,�k�k��,8.4,��
2023/09/22,11:50,0.536,0.814,0.496,1.016,0.723,0.324,0.575,0.534,�k�k��,7.7,��
2023/09/22,12:00,0.537,0.814,0.496,1.015,0.723,0.323,0.575,0.535,�k�k��,6.8,��
2023/09/22,12:10,0.535,0.815,0.497,1.014,0.723,0.322,0.575,0.534,�k�k��,6.8,��
2023/09/22,12:20,0.536,0.814,0.496,1.012,0.725,0.324,0.575,0.535,�k�k��,6.2,��
2023/09/22,12:30,0.536,0.816,0.497,1.013,0.722,0.322,0.576,0.534,�k�k��,6.5,��
2023/09/22,12:40,0.537,0.814,0.496,1.018,0.725,0.322,0.575,0.534,�k�k��,6.2,��
2023/09/22,12:50,0.536,0.816,0.495,1.014,0.724,0.323,0.577,0.534,�k�k��,6.0,�L
2023/09/22,13:00,0.535,0.815,0.493,1.012,0.724,0.322,0.575,0.534,�k�k��,5.6,�L
2023/09/22,13:10,0.537,0.813,0.493,1.014,0.724,0.322,0.576,0.534,�k��,5.7,�L
2023/09/22,13:20,0.536,0.813,0.496,1.012,0.723,0.323,0.576,0.534,���k��,6.1,�L
2023/09/22,13:30,0.536,0.814,0.496,1.015,0.724,0.323,0.576,0.534,�k��,5.3,�L
2023/09/22,13:40,0.536,0.812,0.496,1.013,0.723,0.321,0.577,0.534,�k��,5.0,�L
2023/09/22,13:50,0.534,0.813,0.496,1.012,0.724,0.323,0.577,0.534,�k��,4.9,�L
2023/09/22,14:00,0.537,0.814,0.496,1.012,0.724,0.323,0.578,0.534,���k��,4.2,�L
2023/09/22,14:10,0.535,0.814,0.497,1.015,0.724,0.323,0.577,0.535,���k��,4.9,�L
2023/09/22,14:20,0.536,0.815,0.497,1.015,0.724,0.324,0.578,0.535,���k��,5.6,�L
2023/09/22,14:30,0.535,0.813,0.497,1.015,0.723,0.322,0.577,0.536,���k��,5.1,�L
2023/09/22,14:40,0.537,0.814,0.496,1.014,0.724,0.324,0.579,0.534,���k��,4.5,�L
2023/09/22,14:50,0.536,0.814,0.496,1.014,0.725,0.324,0.578,0.537,���k��,4.0,�L
2023/09/22,15:00,0.536,0.817,0.495,1.013,0.726,0.323,0.577,0.536,���k��,3.5,��
2023/09/22,15:10,0.536,0.814,0.497,1.014,0.725,0.324,0.578,0.536,���k��,3.4,��
2023/09/22,15:20,0.537,0.815,0.496,1.014,0.725,0.323,0.576,0.536,�k��,3.1,��
2023/09/22,15:30,0.536,0.814,0.495,1.015,0.724,0.323,0.578,0.537,���k��,4.1,�L
2023/09/22,15:40,0.538,0.813,0.496,1.015,0.724,0.323,0.577,0.536,���k��,3.5,��
2023/09/22,15:50,0.535,0.813,0.496,1.013,0.725,0.323,0.577,0.536,���k��,3.2,��
2023/09/22,16:00,0.536,0.813,0.495,1.015,0.725,0.322,0.579,0.535,���k��,3.3,��
2023/09/22,16:10,0.538,0.813,0.496,1.013,0.724,0.322,0.578,0.538,��,3.3,��
2023/09/22,16:20,0.537,0.814,0.497,1.013,0.725,0.324,0.578,0.536,��,3.5,��
2023/09/22,16:30,0.537,0.813,0.497,1.014,0.724,0.322,0.578,0.537,��,2.6,��
2023/09/22,16:40,0.537,0.813,0.496,1.013,0.727,0.323,0.576,0.537,���쓌,3.2,��
2023/09/22,16:50,0.538,0.811,0.496,1.014,0.724,0.322,0.578,0.536,���쓌,2.5,��
2023/09/22,17:00,0.537,0.813,0.496,1.014,0.722,0.324,0.579,0.537,���쓌,2.2,��
2023/09/22,17:10,0.536,0.811,0.497,1.014,0.724,0.323,0.579,0.536,���쓌,1.2,��
2023/09/22,17:20,0.536,0.812,0.495,1.015,0.723,0.323,0.578,0.537,���쓌,2.6,��
2023/09/22,17:30,0.536,0.815,0.494,1.016,0.725,0.323,0.580,0.537,��,1.7,��
2023/09/22,17:40,0.536,0.813,0.494,1.015,0.722,0.322,0.579,0.534,���쓌,1.7,��
2023/09/22,17:50,0.537,0.814,0.494,1.016,0.723,0.322,0.577,0.536,���쓌,1.9,�L
2023/09/22,18:00,0.536,0.814,0.496,1.015,0.724,0.324,0.578,0.536,���쓌,1.4,�L
2023/09/22,18:10,0.537,0.815,0.496,1.016,0.723,0.324,0.578,0.537,���쓌,2.0,�L
2023/09/22,18:20,0.537,0.815,0.497,1.015,0.724,0.323,0.579,0.536,���쓌,1.2,�L
2023/09/22,18:30,0.537,0.815,0.496,1.016,0.722,0.323,0.580,0.536,��,1.5,�L
2023/09/22,18:40,0.538,0.816,0.494,1.015,0.725,0.323,0.578,0.537,��,1.2,��
2023/09/22,18:50,0.538,0.815,0.497,1.014,0.725,0.324,0.579,0.537,�쓌,0.9,��
2023/09/22,19:00,0.538,0.818,0.498,1.014,0.725,0.324,0.578,0.537,��쓌,0.6,��
2023/09/22,19:10,0.538,0.816,0.497,1.016,0.727,0.324,0.579,0.536,�쐼,0.9,��
2023/09/22,19:20,0.539,0.816,0.496,1.016,0.725,0.323,0.580,0.536,�쐼,0.9,��
2023/09/22,19:30,0.537,0.815,0.496,1.012,0.724,0.324,0.579,0.536,��쐼,1.7,��
2023/09/22,19:40,0.539,0.814,0.497,1.014,0.725,0.324,0.581,0.536,��쐼,1.5,��
2023/09/22,19:50,0.537,0.815,0.496,1.016,0.723,0.325,0.579,0.535,��쐼,1.2,��
2023/09/22,20:00,0.539,0.816,0.497,1.016,0.725,0.324,0.578,0.536,�쐼,1.1,��
2023/09/22,20:10,0.537,0.816,0.497,1.016,0.727,0.324,0.581,0.535,���쐼,0.9,��
2023/09/22,20:20,0.538,0.816,0.497,1.015,0.725,0.324,0.579,0.538,��쐼,0.6,��
2023/09/22,20:30,0.538,0.815,0.497,1.014,0.724,0.324,0.579,0.536,���쐼,1.5,��
2023/09/22,20:40,0.538,0.815,0.498,1.017,0.724,0.324,0.578,0.535,���쐼,1.2,��
2023/09/22,20:50,0.537,0.816,0.498,1.016,0.723,0.325,0.578,0.535,���쐼,0.8,��
2023/09/22,21:00,0.538,0.814,0.497,1.014,0.726,0.324,0.580,0.536,�쐼,1.2,��
2023/09/22,21:10,0.537,0.815,0.496,1.016,0.724,0.324,0.580,0.535,��쐼,1.2,��
2023/09/22,21:20,0.538,0.814,0.498,1.017,0.724,0.324,0.579,0.535,��쐼,1.2,��
2023/09/22,21:30,0.537,0.817,0.496,1.015,0.725,0.323,0.579,0.536,�쐼,1.1,��
2023/09/22,21:40,0.538,0.815,0.498,1.016,0.725,0.324,0.580,0.536,�쐼,0.9,��
2023/09/22,21:50,0.540,0.817,0.497,1.013,0.725,0.325,0.579,0.535,���쐼,1.4,��
2023/09/22,22:00,0.539,0.815,0.496,1.015,0.726,0.324,0.578,0.537,�쐼,1.1,��
2023/09/22,22:10,0.539,0.816,0.496,1.017,0.724,0.324,0.581,0.535,���쐼,1.1,��
2023/09/22,22:20,0.536,0.814,0.497,1.016,0.724,0.325,0.579,0.536,�쐼,0.6,��
2023/09/22,22:30,0.537,0.814,0.497,1.018,0.723,0.324,0.581,0.535,��,0.9,��
2023/09/22,22:40,0.538,0.815,0.497,1.018,0.725,0.323,0.579,0.536,���쐼,1.2,��
2023/09/22,22:50,0.537,0.815,0.497,1.014,0.725,0.324,0.580,0.536,-,CALM,��
2023/09/22,23:00,0.537,0.814,0.497,1.016,0.725,0.324,0.581,0.535,���쐼,0.6,��
2023/09/22,23:10,0.538,0.814,0.497,1.017,0.726,0.324,0.579,0.535,���쐼,0.6,��
2023/09/22,23:20,0.538,0.814,0.497,1.014,0.723,0.323,0.581,0.536,��,0.6,��
2023/09/22,23:30,0.537,0.815,0.497,1.013,0.723,0.324,0.579,0.536,���쐼,0.6,��
2023/09/22,23:40,0.538,0.814,0.496,1.017,0.726,0.324,0.579,0.535,�쐼,0.6,��
2023/09/22,23:50,0.537,0.815,0.496,1.017,0.726,0.324,0.579,0.537,�k��,0.6,��
